Location: Ravensburg
(47.7866°N, 9.6124°E)
Time: 09:30:30
(UTC+02:00)

YUBILEINY - Pass Details

Date: 17 March 2026
Orbit: 1477 x 1509 km, 82.5° (Epoch: 17 April)

Event Time Altitude Azimuth Distance (km) Brightness Sun altitude
Rises 04:12:20 0° 347° (NNW) 4,621 ? -23.4°
Reaches altitude 10° 04:15:17 10° 344° (NNW) 3,634 ? -23.0°
Maximum altitude 04:23:41 55° 270° (W) 1,736 ? -21.7°
Drops below altitude 10° 04:32:00 10° 196° (SSW) 3,606 ? -20.4°
Sets 04:34:56 0° 192° (SSW) 4,583 ? -19.9°
